IRIDIUM 74 [S]

Last updated on Wed Jun 14 2017 00:17:51 GMT+0000 (Coordinated Universal Time)

1 25345U 98032D 17162.50137684 .46065783 39736-5 20475-2 0 9994 2 25345 86.5550 226.3282 0321839 347.0209 102.6037 15.75316926 1955

Satellite not in orbit